Regional Weather Roundup
Issued by NWS

Home | Current Version | Previous Version | Text Only | Print | Product List | Glossary On
Versions: 1 2 3 4 5 6 7 8 9 10 11 12 13 14 15 16 17 18 19 20 21 22 23 24 25 26 27 28 29 30 31 32 33 34 35 36 37 38 39 40 41 42 43 44 45 46 47 48 49 50
000
ASCA42 TJSJ 301510
RWRPR
PUERTO RICO/U.S. VIRGIN ISLANDS HOURLY WEATHER ROUNDUP
NATIONAL WEATHER SERVICE SAN JUAN PR
1100 AM AST SUN AUG 30 2015

PRZ001-004-301600-
PUERTO RICO

CITY           SKY/WX    TMP DP  RH WIND       PRES   REMARKS
SAN JUAN LMM   PTSUNNY   84  79  84 E10       30.05R HX  96
PONCE          PTSUNNY   91  75  59 E12       29.97F HX 102
AGUADILLA        N/A     86  77  74 E12       30.05S HX  97
$$

PRZ006-007-301600-
U.S. VIRGIN ISLANDS

CITY           SKY/WX    TMP DP  RH WIND       PRES   REMARKS
CHARLOTTE AMA  PTSUNNY   90  79  70 E13       30.04R HX 105
CHRISTIANSTED  MOSUNNY   88  79  74 E14       30.04S HX 102
$$

HOURLY WEATHER ROUNDUP FOR THE NEWS MEDIA

CITY           SKY/WX    TMP DP  RH WIND       PRES   REMARKS
ORLANDO        CLOUDY    83  77  82 S9        30.03R HX  92
NEW YORK       MOSUNNY   80  65  59 S7        30.12S
NEWARK         PTSUNNY   82  64  54 W5        30.10F
CHICAGO        CLOUDY    69  64  84 NE7       30.08R HAZE
HARTFORD       SUNNY     80  66  62 W8        30.07F
BOSTON         MOSUNNY   82  62  50 W6        30.06F
DALLAS         PTSUNNY   84  65  52 SW9       30.00R
PHILADELPHIA   PTSUNNY   81  64  56 SW8       30.13F
LOS ANGELES    MOSUNNY   74  67  78 E7        29.90R
WASHINGTON DC  CLOUDY    76  65  68 SW3       30.14S



USA.gov is the U.S. government's official web portal to all federal, state and local government web resources and services.